星链-37742(STARLINK-37742)

导读

STARLINK-37742(NORAD编号69241)是SpaceX星链(Starlink)互联网星座的一员,属于低轨通信卫星,旨在为全球提供高覆盖、低延迟的宽带互联网服务。 该卫星延续星链标准设计,配备星载相控阵天线与自动脱轨技术,运行在近地轨道,完成组网部署后可增强星链网络容量与覆盖密度,是SpaceX大规模星座建设计划中的常规组网卫星,目前处于在轨运行状态,服务全球星链用户的互联网接入需求。

Basic Information
目录编号:
69241
目录名称:
STARLINK-37742
国际标识:
2026-117D
轨道中心:
EARTH
卫星名称:
星链-37742
卫星全名:
星链-37742(STARLINK-37742)
卫星状态:
在轨 (已飞行107 天)
发射日期:
2026-05-29 UTC
国别 :
美国 (US)
星等 :
--
This satellite is enrolled in the Space Conjunction Data Service (SCDS) and the current flight risk assessment level is: High Risk
Orbit Information
数据来源 国际轨道数据
星历时间: 2026-09-13T14:00:33+0800
6小时前
查看轨道信息
半长轴: 6840.845km
偏心率: 0.0001324
轨道倾角: 53.158°
近地点辐角 96.190°
升交点赤经 187.663°
平近点角 263.926°
近地点: 461.802km
远地点: 463.614km
周期: 93.848分钟
每日圈数: 15.343984
Detailed Information
固有亮度:
5
最大亮度:
2.5
卫星平台:
Starlink V1.0
覆盖范围:
全球
运营商:
太空探索技术公司
运营商所在国:
美国
制造商(研发单位):
太空探索技术公司
制造商所在国:
美国
使用方式:
暂无
Satellite Introduction
Starlink 计划是 SpaceX 推出的全球卫星互联网项目,通过发射低轨道卫星,为全球尤其是偏远地区提供高速、低延迟的互联网服务。自 2019 年起,Starlink 已部署数千颗卫星,旨在缩小全球数字鸿沟,推动互联网普及。该项目还为军事、航空等行业提供通信支持,带来广泛经济效益。
2D Orbit Map
3D Orbit Map
Orbit Altitude Analysis Chart
Orbit Inclination Analysis Chart
Orbit Comprehensive Analysis Chart
View Comprehensive Chart
Conjunction Data List
Event ID Objects TCA Miss Dist (km) Collision Risk Probability Collision Risk Index (CRI) Action
CDM_260915-025006-897506-924121
2026-09-15T
02:50:07+0000
0.457 km
远距离
1.715517E-4 高风险 0.8
CDM_260915-042306-897506-924121
2026-09-15T
04:23:55+0000
1.209 km
极远距离
8.877864E-6 低风险 0.54
CDM_260915-011606-897506-924121
2026-09-15T
01:16:20+0000
1.817 km
极远距离
2.440081E-6 低风险 0.43
CDM_260914-131305-253506-924121
2026-09-14T
13:13:50+0000
2.799 km
极远距离
1.307715E-6 低风险 0.37
CDM_260912-220105-231106-924122
2026-09-12T
22:01:21+0000
2.826 km
极远距离
1.217898E-6 低风险 0.37
CDM_260911-124605-233606-924122
2026-09-11T
12:46:58+0000
2.815 km
极远距离
1.182967E-6 低风险 0.36
CDM_260915-055706-897506-924121
2026-09-15T
05:57:42+0000
2.692 km
极远距离
1.064825E-6 低风险 0.36
Miss Distance Evolution Trend with All Objects
Collision Probability Evolution Trend with All Objects